Weather in Buffalo

United States     42°53′09″N   78°52′41″W
temp.,
°C
wind,
m/s
gust,
m/s
humid.,
%
clouds,
%
prec.,
mm/h
press.,
hPa
HPBL,
m
26 may, thu
thu2623:00+20sse51061100 0.0 1019813
02:00+18s51364100 0.0 1017662
05:00+17ssw5156797 0.0 1017754
08:00+17s51572100 0.0 1016558
11:00+22ssw61361100 0.0 1015763
14:00+21ssw51375100 0.1 1014982
17:00+24sw51167100 0.1 10121163
20:00+19ssw31094100 0.7 1012326
27 may, fri
fri2723:00+17ssw31295100 0.2 1012490
02:00+18s51289100 0.2 1010623
05:00+18s51492100 0.3 1008818
08:00+18ssw41295100 1.0 1008887
11:00+20sw51083100 0.4 1008875
14:00+22sw61166100 0.4 10071046
17:00+21wsw51063100 0.0 1007994
20:00+18sw31074100 0.0 1007419
28 may, sat
sat2823:00+16wsw387936 0.0 1006197
02:00+14sw1292100 0.0 100647
05:00+14nnw2494100 0.0 1007230
08:00+13nnw359195 0.0 1009346
11:00+16nnw357990 0.0 1010709
14:00+17nw356884 0.1 1010942
17:00+20wnw35526 0.0 10101281
20:00+16wsw477650 0.0 1012316
29 may, sun
sun2923:00+13ssw258615 0.0 1014145
02:00+12s2589100 0.0 1014136
05:00+12ssw259475 0.0 1015125
08:00+15ssw35755 0.0 1017260
11:00+20ssw3551100 0.0 1016751
14:00+23sw464997 0.0 10161130
17:00+23sw36535 0.0 1015878
20:00+21s226833 0.0 101468
30 may, mon
mon3023:00+19se2380100 0.0 101651
02:00+18ssw2683100 0.1 1015147
05:00+17s3118796 0.2 1015230
08:00+20ssw5147145 0.2 1016500
11:00+23wsw71265100 0.0 1016651
14:00+25sw6965100 0.0 1015627
17:00+24sw5970100 0.0 1015369
20:00+21sw4117842 0.0 1015240